Location: Clay (historical)
(35.1476°N, 89.8179°W)
Time: 10:00:20
(UTC+00:00)

Daily predictions for brighter satellites

Satellite Brightness Start Highest point End
(mag) Time Altitude Azimuth Time Altitude Azimuth Time Altitude Azimuth
Lacrosse 4 Rocket 4.1 12:04:58 10° NNE 12:07:17 15° NE 12:09:37 10° E
Cosmos 1315 Rocket 2.8 12:05:27 10° S 12:09:08 76° E 12:12:52 10° NNE
Cosmos 2233 Rocket 4.5 12:04:26 10° S 12:10:30 66° E 12:16:38 10° NNE
Hubble Space Telescope 2.4 12:10:50 10° SW 12:13:56 24° S 12:17:03 10° ESE
Cosmos 2360 Rocket 2.3 12:08:51 10° SW 12:14:19 54° WNW 12:19:49 10° NNE
Cosmos 2278 4.4 12:10:06 10° WSW 12:15:04 31° WNW 12:20:03 10° N
USA 229 DEB 3.6 12:10:00 10° SSW 12:15:42 77° ESE 12:22:03 10° NE
USA 229 3.6 12:10:04 10° SSW 12:15:47 76° ESE 12:22:07 10° NE
DELTA 2 R/B (1) 3.8 12:11:39 10° W 12:17:09 63° NNW 12:22:41 10° ENE
ATLAS 3B R/B 3.4 12:10:21 10° SSW 12:17:41 72° ESE 12:25:29 10° NE
Cosmos 1356 Rocket 3.4 12:14:39 10° S 12:18:28 79° E 12:22:19 10° N
Cosmos 2333 4.3 12:14:53 10° SSW 12:20:30 61° WNW 12:26:07 10° NNE
Cosmos 1802 Rocket 4.1 12:16:55 10° SSW 12:22:59 58° W 12:29:11 10° N
